[[{"header":{"parameterUnit":"m.s-1","parameterCategory":1,"la1":30.2991,"la2":30.254,"lo1":-89.0895,"lo2":-89.0444,"dy":0.0017,"dx":0.0017,"nx":28,"ny":28,"refTime":"2023-03-30T15:00:00:Z","depth":0,"parameterNumber":2,"parameterNumberName":"U-component_of_WINDS"},"data":[0,0,0,0,0,0,0,0,0,0,0,0,0,0,0,0,0,0,0,0,0,0,0,0,0,0,0,0,0,0,0,0,0,0,0,0,0,0,0,0,0,0,0,0,0,0,0,0,0,0,0,0,0,0,0,0,0,0,-4.1226,-4.1227,0,-4.1304,-4.1304,-4.1305,-4.1298,-4.1297,-4.1296,-4.1295,-4.1373,-4.1376,-4.138,0,0,0,0,0,0,0,0,0,0,0,0,0,-4.1072,-4.1075,-4.1226,-4.1227,-4.1228,-4.1303,-4.1304,-4.1306,-4.1299,-4.1297,-4.1296,-4.1294,-4.1372,-4.1376,-4.138,0,0,0,0,0,0,0,0,0,0,0,0,0,-4.1143,-4.1076,-4.1226,-4.1234,-4.1235,-4.1303,-4.1305,-4.1306,-4.1299,-4.1297,-4.1295,-4.1294,-4.1371,-4.1376,-4.138,-4.1445,0,0,-4.1395,-4.1397,0,0,0,0,0,0,0,0,-4.1139,-4.1149,-4.1232,-4.1234,-4.1235,-4.129,-4.1279,-4.1353,-4.1299,-4.1275,-4.1295,-4.1293,-4.1347,-4.1353,-4.1372,-4.1449,-4.1452,-4.1395,-4.1398,-4.14,-4.1402,0,0,0,0,0,0,0,-4.1134,-4.1146,-4.1257,-4.1233,-4.1235,-4.1233,-4.1241,-4.1293,-4.132,-4.1277,-4.1276,-4.1286,-4.1347,-4.1367,-4.1374,-4.1453,-4.1395,-4.1399,-4.1402,-4.1404,-4.1587,-4.1588,0,0,0,0,0,0,-4.1128,-4.1142,-4.1254,-4.1259,-4.1182,-4.1238,-4.1247,-4.1274,-4.1319,-4.1324,-4.1287,-4.1285,-4.136,-4.1368,-4.1376,-4.1454,-4.14,-4.1405,-4.1407,-4.1585,-4.1587,-4.1589,0,0,0,0,0,0,-4.1124,-4.1138,-4.1251,-4.12,-4.1215,-4.1242,-4.1273,-4.1276,-4.1296,-4.1327,-4.1332,-4.1302,-4.1359,-4.137,-4.1428,-4.1457,-4.1407,-4.1411,-4.1582,-4.1585,-4.1588,-4.161,0,0,0,0,0,0,-4.112,-4.1137,-4.1162,-4.1201,-4.1217,-4.1302,-4.1275,-4.1279,-4.1304,-4.1303,-4.1343,-4.1348,-4.1358,-4.1421,-4.1433,-4.1462,-4.1415,-4.158,-4.1584,-4.1587,-4.1607,-4.1614,-4.1619,0,0,0,0,0,-4.1115,-4.1165,-4.1163,-4.1177,-4.1249,-4.1303,-4.1313,-4.1324,-4.1307,-4.1332,-4.1352,-4.1346,-4.1452,-4.1427,-4.144,-4.1472,-4.1578,-4.1583,-4.1587,-4.1604,-4.1612,-4.1619,0,0,0,0,0,0,-4.1128,-4.117,-4.1168,-4.1233,-4.1265,-4.1302,-4.1334,-4.1333,-4.137,-4.1366,-4.1379,-4.1388,-4.1446,-4.1465,-4.1436,-4.1536,-4.1513,-4.152,-4.1521,-4.1529,-4.1535,-4.1529,-4.1419,0,0,0,0,0,-4.1139,-4.118,-4.1214,-4.1268,-4.1284,-4.1307,-4.1331,-4.1337,-4.137,-4.1383,-4.1407,-4.1439,-4.148,-4.1506,-4.1545,-4.1611,-4.1619,-4.1639,-4.1645,-4.165,-4.1655,-4.169,-4.1699,-4.1604,-4.1604,-4.1604,0,0,-4.1161,-4.1189,-4.1214,-4.1271,-4.1297,-4.1338,-4.1318,-4.1363,-4.1393,-4.139,-4.1446,-4.1465,-4.1502,-4.1564,-4.1592,-4.1581,-4.1684,-4.1656,-4.1659,-4.1662,-4.1696,-4.1705,-4.1713,-4.1607,-4.1606,-4.1606,0,0,-4.1222,-4.1248,-4.1295,-4.1321,-4.1359,-4.1374,-4.1385,-4.1423,-4.1435,-4.1492,-4.149,-4.1527,-4.1597,-4.1623,-4.1645,-4.1716,-4.1712,-4.1729,-4.176,-4.1794,-4.1801,-4.1808,-4.1832,-4.184,-4.1735,-4.1735,-4.1735,0,-4.1244,-4.1307,-4.1319,-4.1364,-4.1389,-4.1389,-4.1436,-4.146,-4.151,-4.1527,-4.1514,-4.1601,-4.1626,-4.1693,-4.171,-4.1729,-4.1742,-4.1723,-4.1799,-4.1806,-4.1813,-4.1835,-4.1844,-4.1737,-4.1736,-4.1736,-4.1736,0,-4.1331,-4.1375,-4.1408,-4.1455,-4.1484,-4.153,-4.1549,-4.1577,-4.1582,-4.1598,-4.1655,-4.1685,-4.1729,-4.1747,-4.1751,-4.1815,-4.1806,-4.1797,-4.1772,-4.1823,-4.1845,-4.1854,-4.1739,-4.1738,-4.1738,-4.1737,0,0,-4.1401,-4.1456,-4.1467,-4.1488,-4.1531,-4.1565,-4.1611,-4.1655,-4.1677,-4.1712,-4.175,-4.1809,-4.18,-4.1826,-4.1833,-4.1863,-4.1916,-4.185,-4.1851,-4.1859,-4.1986,-4.1991,-4.2001,-4.1915,-4.1916,-4.1918,-4.1982,0,-4.1465,-4.1546,-4.1559,-4.163,-4.1669,-4.167,-4.171,-4.174,-4.1757,-4.1793,-4.1811,-4.1852,-4.1838,-4.1853,-4.1883,-4.1903,-4.1941,-4.1899,-4.1949,-4.195,-4.1937,-4.2013,-4.2019,-4.2078,-4.1991,-4.1992,-4.1994,0,-4.155,-4.1586,-4.1661,-4.1698,-4.1715,-4.175,-4.1791,-4.1826,-4.186,-4.187,-4.1899,-4.1903,-4.195,-4.1926,-4.199,-4.1961,-4.1983,-4.1996,-4.1998,-4.2001,-4.1973,-4.2016,-4.2098,-4.2106,-4.2007,-4.2006,-4.2005,0,-4.1591,-4.1659,-4.1712,-4.173,-4.1775,-4.18,-4.182,-4.1852,-4.1878,-4.1914,-4.193,-4.1971,-4.1993,-4.2025,-4.204,-4.2021,-4.2103,-4.208,-4.2111,-4.2111,-4.2127,-4.2125,-4.2211,-4.2144,-4.2144,-4.2144,-4.2144,0,-4.1659,-4.1705,-4.1731,-4.1763,-4.1814,-4.1829,-4.1878,-4.1898,-4.1927,-4.1963,-4.1967,-4.2,-4.2019,-4.2055,-4.2068,-4.2118,-4.2129,-4.2137,-4.214,-4.2136,-4.2135,-4.2148,-4.2144,-4.2146,-4.2146,-4.2145,-4.2145,0,-4.1713,-4.1733,-4.179,-4.1828,-4.1839,-4.1874,-4.1906,-4.1938,-4.1955,-4.2,-4.2011,-4.2038,-4.208,-4.2099,-4.2152,-4.2161,-4.2218,-4.2218,-4.2206,-4.2206,-4.2236,-4.2232,-4.2332,-4.2345,-4.2271,-4.2272,-4.2273,0,-4.1754,-4.1789,-4.1831,-4.1855,-4.1875,-4.1915,-4.194,-4.1957,-4.1983,-4.2025,-4.2051,-4.2094,-4.2129,-4.2198,-4.2221,-4.2262,-4.2262,-4.2294,-4.2268,-4.2263,-4.226,-4.2257,-4.226,-4.2298,-4.2299,-4.23,-4.23,0,-4.1825,-4.1833,-4.187,-4.1911,-4.1941,-4.1974,-4.2006,-4.2026,-4.2047,-4.2076,-4.212,-4.2147,-4.2202,-4.2244,-4.2286,-4.2306,-4.2306,-4.2309,-4.2318,-4.2313,-4.2303,-4.2307,-4.2217,-4.2306,-4.2305,-4.2305,-4.2304,-4.2304,-4.1873,-4.1903,-4.1937,-4.1978,-4.2004,-4.2033,-4.2064,-4.2085,-4.2122,-4.2167,-4.2174,-4.2221,-4.2254,-4.2311,-4.2333,-4.2369,-4.2361,-4.2374,-4.2377,-4.238,-4.2381,-4.2299,-4.2377,-4.2377,-4.2377,-4.2377,-4.2377,0,-4.1942,-4.1964,-4.2002,-4.2046,-4.2078,-4.2076,-4.2112,-4.2138,-4.2179,-4.221,-4.2245,-4.2295,-4.2336,-4.2363,-4.2405,-4.2428,-4.243,-4.2439,-4.2436,-4.244,-4.2387,-4.2374,-4.2437,-4.2437,-4.2437,-4.2437,-4.2437,-4.2437,-4.1982,-4.2033,-4.2045,-4.2108,-4.213,-4.2175,-4.2195,-4.2223,-4.2247,-4.2303,-4.2337,-4.2355,-4.2384,-4.2428,-4.2465,-4.2472,-4.2486,-4.2496,-4.2502,-4.2451,-4.2444,-4.2438,-4.2426,-4.2499,-4.2499,-4.2552,-4.2553,-4.2553]},{"header":{"parameterUnit":"m.s-1","parameterCategory":1,"la1":30.2991,"la2":30.254,"lo1":-89.0895,"lo2":-89.0444,"dy":0.0017,"dx":0.0017,"nx":28,"ny":28,"refTime":"2023-03-30T15:00:00:Z","depth":0,"parameterNumber":3,"parameterNumberName":"V-component_of_WINDS"},"data":[0,0,0,0,0,0,0,0,0,0,0,0,0,0,0,0,0,0,0,0,0,0,0,0,0,0,0,0,0,0,0,0,0,0,0,0,0,0,0,0,0,0,0,0,0,0,0,0,0,0,0,0,0,0,0,0,0,0,5.2111,5.2111,0,5.2193,5.2194,5.2195,5.216,5.2158,5.2156,5.2154,5.2234,5.2238,5.2242,0,0,0,0,0,0,0,0,0,0,0,0,0,5.1919,5.1923,5.211,5.2112,5.2113,5.2193,5.2194,5.2195,5.216,5.2158,5.2155,5.2153,5.2233,5.2238,5.2243,0,0,0,0,0,0,0,0,0,0,0,0,0,5.2002,5.1924,5.211,5.2105,5.2105,5.2193,5.2194,5.2196,5.2161,5.2158,5.2155,5.2152,5.2232,5.2237,5.2243,5.234,0,0,5.2262,5.2264,0,0,0,0,0,0,0,0,5.1997,5.2009,5.2105,5.2105,5.2106,5.2163,5.2156,5.2244,5.2161,5.2139,5.2154,5.215,5.2213,5.222,5.2242,5.2344,5.2348,5.2262,5.2266,5.2268,5.227,0,0,0,0,0,0,0,5.1991,5.2005,5.2143,5.2106,5.2107,5.2097,5.2106,5.2173,5.2192,5.2141,5.2139,5.2149,5.2213,5.2237,5.2244,5.2349,5.2262,5.2267,5.2271,5.2273,5.2535,5.2539,0,0,0,0,0,0,5.1986,5.2001,5.214,5.2146,5.2043,5.2103,5.2113,5.2148,5.2191,5.2195,5.2152,5.2147,5.2228,5.2237,5.2247,5.2364,5.2268,5.2274,5.2278,5.2532,5.2536,5.254,0,0,0,0,0,0,5.1982,5.1999,5.2137,5.2073,5.2089,5.211,5.2149,5.2151,5.2175,5.2199,5.2202,5.2173,5.2226,5.2238,5.2318,5.2366,5.2277,5.2282,5.2528,5.2533,5.2538,5.2598,0,0,0,0,0,0,5.1977,5.1998,5.2035,5.2074,5.2093,5.2208,5.2152,5.2155,5.2186,5.2181,5.222,5.2223,5.2224,5.2309,5.2324,5.2373,5.2287,5.2524,5.253,5.2536,5.2592,5.2605,5.2616,0,0,0,0,0,5.197,5.2048,5.2037,5.2055,5.2141,5.2211,5.2222,5.2223,5.219,5.2228,5.2243,5.2222,5.2359,5.2318,5.2334,5.2385,5.2521,5.2529,5.2536,5.2587,5.2602,5.2615,0,0,0,0,0,0,5.2013,5.2053,5.2042,5.2134,5.217,5.2205,5.2252,5.2239,5.2283,5.2277,5.2275,5.2284,5.2367,5.2384,5.2337,5.2482,5.2434,5.2446,5.2468,5.2483,5.2494,5.2488,5.2292,0,0,0,0,0,5.2033,5.2088,5.212,5.2198,5.2217,5.2232,5.2262,5.226,5.2296,5.2311,5.2332,5.2367,5.2418,5.2451,5.2499,5.2595,5.2603,5.2638,5.265,5.2659,5.2669,5.2721,5.2738,5.2565,5.2565,5.2564,0,0,5.2075,5.2104,5.2139,5.2208,5.2235,5.2291,5.2244,5.2305,5.2347,5.2319,5.2397,5.2414,5.2452,5.2541,5.2581,5.2558,5.2719,5.2669,5.2676,5.2681,5.2731,5.2747,5.2762,5.257,5.2569,5.2568,0,0,5.2181,5.2209,5.2278,5.2307,5.2349,5.2359,5.2376,5.2414,5.2424,5.2502,5.2483,5.2532,5.2619,5.2648,5.2674,5.2793,5.2775,5.2809,5.287,5.2921,5.2935,5.2947,5.299,5.3005,5.2818,5.2818,5.2818,0,5.2228,5.2313,5.2315,5.2378,5.2409,5.2389,5.2459,5.2486,5.2542,5.2563,5.2537,5.2647,5.2672,5.2767,5.2797,5.2818,5.2837,5.2804,5.2933,5.2945,5.2956,5.2997,5.3013,5.2822,5.2822,5.2821,5.2821,0,5.2369,5.2428,5.2479,5.2535,5.2572,5.2638,5.2649,5.2686,5.2681,5.2693,5.2773,5.2802,5.2856,5.2879,5.2874,5.2974,5.2958,5.2933,5.2885,5.2977,5.3015,5.303,5.2828,5.2826,5.2825,5.2824,0,0,5.2502,5.2561,5.2579,5.2605,5.2651,5.2697,5.2762,5.2817,5.2849,5.2888,5.2942,5.3018,5.2995,5.3025,5.3023,5.3068,5.3161,5.3037,5.3038,5.3059,5.3274,5.3293,5.3311,5.315,5.3153,5.3155,5.327,0,5.2612,5.2728,5.2733,5.2838,5.2893,5.2876,5.2933,5.2967,5.2981,5.3028,5.3043,5.3097,5.3062,5.308,5.3124,5.314,5.3204,5.3132,5.32,5.3202,5.3191,5.3331,5.3351,5.3458,5.3285,5.3288,5.329,0,5.2755,5.2801,5.2913,5.2953,5.2976,5.3028,5.3079,5.3125,5.3164,5.317,5.3205,5.3197,5.3263,5.3214,5.3305,5.3256,5.3284,5.3296,5.3301,5.3307,5.3251,5.334,5.3492,5.3509,5.3313,5.3311,5.331,0,5.2842,5.2932,5.3011,5.3034,5.3082,5.3119,5.314,5.3176,5.3209,5.3253,5.3275,5.3325,5.3353,5.3392,5.3398,5.3362,5.349,5.3441,5.3497,5.3497,5.3524,5.3522,5.3683,5.3543,5.3542,5.3542,5.3542,0,5.2964,5.3033,5.3051,5.3099,5.3177,5.318,5.3256,5.3275,5.3307,5.3358,5.3346,5.3394,5.3399,5.3448,5.3453,5.3528,5.3541,5.3547,5.3548,5.3549,5.3548,5.3567,5.3559,5.3546,5.3545,5.3544,5.3544,0,5.3074,5.3089,5.3174,5.3213,5.3225,5.328,5.3313,5.336,5.3373,5.3438,5.3453,5.3473,5.3531,5.3541,5.3608,5.3611,5.3701,5.3694,5.3689,5.3688,5.3744,5.3738,5.3922,5.3946,5.379,5.3791,5.3792,0,5.3151,5.3204,5.325,5.3285,5.3309,5.3364,5.3398,5.3404,5.344,5.3489,5.353,5.3586,5.3632,5.3725,5.3745,5.3797,5.3791,5.3851,5.3798,5.3798,5.3792,5.3789,5.3794,5.3861,5.3863,5.3864,5.3865,0,5.3286,5.3291,5.3342,5.3396,5.3438,5.348,5.352,5.3549,5.356,5.3601,5.3661,5.3697,5.3767,5.3823,5.3875,5.3896,5.3883,5.3882,5.3898,5.3899,5.3894,5.3898,5.3717,5.3878,5.3877,5.3876,5.3875,5.3874,5.3382,5.3429,5.347,5.3527,5.3558,5.3596,5.3642,5.3662,5.3712,5.3771,5.3771,5.3837,5.3875,5.3943,5.3968,5.4019,5.3999,5.4022,5.4028,5.4033,5.4039,5.3887,5.4028,5.4028,5.4027,5.4027,5.4027,0,5.3517,5.3543,5.3595,5.3653,5.3698,5.3684,5.3727,5.3766,5.3824,5.3862,5.3908,5.3977,5.4032,5.4057,5.4111,5.4147,5.4143,5.4161,5.4159,5.4164,5.4053,5.4034,5.4164,5.4164,5.4164,5.4164,5.4164,5.4164,5.3592,5.3672,5.3682,5.3776,5.3801,5.3867,5.3893,5.3928,5.3958,5.4037,5.4083,5.41,5.4132,5.4189,5.4239,5.4244,5.4265,5.4287,5.429,5.4185,5.4172,5.4158,5.4141,5.4291,5.4291,5.4397,5.4398,5.4398]}]]